Regional Weather Roundup
Issued by NWS Goodland, KS

Home | Current Version | Previous Version | Graphics & Text | Print | Product List | Glossary On
Versions: 1 2 3 4 5 6 7 8 9 10 11 12 13 14 15 16 17 18 19 20 21 22 23 24 25 26 27 28 29 30 31 32 33 34 35 36 37 38 39 40 41 42 43 44 45 46 47 48 49 50
455
ASUS43 KGLD 262108
RWRGLD

GOODLAND FORECAST AREA HOURLY WEATHER ROUNDUP
NATIONAL WEATHER SERVICE GOODLAND KS
300 PM MDT THU MAY 26 2016

...OFFICIAL OBSERVATIONS...

CITY           SKY/WX    TMP DP  RH WIND       PRES   REMARKS
GOODLAND KS    NOT AVBL
HILL CITY KS   CLOUDY    73  67  81 NE9       29.71F
IMPERIAL NEB   MOSUNNY   76  45  33 NE16      29.77F
MCCOOK NEB     MOSUNNY   74  57  55 E20       29.74F
AKRON CO       PTSUNNY   68  40  35 E17G26    29.83F
BURLINGTON CO  PTSUNNY   72  52  49 E18       29.75F
LIMON CO       CLOUDY    64  45  49 E15       29.80F
$$

...UNOFFICIAL OBSERVATIONS...

CITY           SKY/WX    TMP DP  RH WIND       PRES   REMARKS
GOVE KS          N/A     77  32  19 MISG        N/A
SHARON SPRINGS   N/A     76  61  59 NE7G14      N/A
KIT CARSON CO    N/A     73  54  51 MISG        N/A
YUMA CO          N/A     71  45  39 E16G25      N/A
$$




USA.gov is the U.S. government's official web portal to all federal, state and local government web resources and services.